Location: Unspecified
(51.0950°N, 12.9690°E)
Time: 14:11:58
(UTC+00:00)

IRS-P2 Rocket - Pass Details

Date: 28 October 2021
Orbit: 794 x 876 km, 99.1° (Epoch: 26 November)

Event Time Altitude Azimuth Distance (km) Brightness Sun altitude
Exits shadow 18:17:07 45° 153° (SSE) 1,075 4.9 -23.7°
Maximum altitude 18:18:46 82° 72° (ENE) 810 4.4 -24.0°
Drops below altitude 10° 18:24:01 10° 346° (NNW) 2,380 7.3 -24.8°
Sets 18:26:21 0° 345° (NNW) 3,320 8.1 -25.1°
